Tracking 17155 objects as of 28-July-2015
HD Live streaming from Space Station

THORAD AGENA D DEB

Track THORAD AGENA D DEB now!
10-day predictions
THORAD AGENA D DEB is classified as:


NORAD ID: 4768
Int'l Code: 1970-025DN
Perigee: 986.3 km
Apogee: 1,031.2 km
Inclination: 100.1 °
Period: 105.2 minutes
Semi major axis: 7379 km
RCS: 0.064 m2 (small)
Launch date: April 8, 1970
Source: United States (US)

Note: This is SATELLITE DEBRIS
Your satellite tracking list
Your tracking list is empty





NASA's NSSDC Master Catalog

Two Line Element Set (TLE):
1 04768U 70025DN  15209.34607508  .00000102  00000-0  17270-3 0  9992
2 04768 100.1337 336.1313 0030393 357.9607 061.0910 13.69428949253784

Source of the keplerian elements: AFSPC

N2YO: 263